カタログに戻る

GALAXY 36

運用中通信GEO
NORAD 54742·PAYLOAD·🇺🇸 United States

打ち上げ Dec 13, 2022 から Guiana Space Centre

Loading…

TLE

最新Source: CelesTrak SupGP

元期: Sep 14, 2026, 00:00 UTC

1 54742C 22170B   26257.00000000 -.00000095  00000+0  00000+0 0  2576
2 54742   0.0135 159.1052 0002206 323.5805 141.3037  1.00272480    16

AllMySatでGALAXY 36をリアルタイム追跡

Download on the App Store